AL7BX-WX Weather Reports


time (UTC)temp
C
wind
direction
speed
KPH
gust
KPH
rain 1hr
cm
rain 24hr
cm
rain mn
cm
humidity
%
barometer
mb
20260508013603 21 175 4.8 11.3 0.00 0.00 0.00 23
20260508012914 21 178 4.8 11.3 0.00 0.00 0.00 23
20260508011803 21 194 6.4 14.5 0.00 0.00 0.00 23
20260508010903 21 193 4.8 11.3 0.00 0.00 0.00 22
20260508010003 22 198 4.8 11.3 0.00 0.00 0.00 22
20260508005613 22 199 4.8 8.0 0.00 0.00 0.00 23
20260508004503 23 192 4.8 11.3 0.00 0.00 0.00 21
20260508003814 23 177 6.4 16.1 0.00 0.00 0.00 21
20260508002703 24 181 4.8 14.5 0.00 0.00 0.00 20
20260508001803 23 215 6.4 22.5 0.00 0.00 0.00 21
20260508000903 23 188 4.8 22.5 0.00 0.00 0.00 21
20260508000003 24 220 3.2 16.1 0.00 0.00 0.00 20
20260507235403 24 248 4.8 9.7 0.00 0.00 0.00 20
20260507234503 25 249 9.7 22.5 0.00 0.00 0.00 18
20260507233603 25 256 12.9 22.5 0.00 0.00 0.00 20
20260507232913 26 274 9.7 20.9 0.00 0.00 0.00 19
20260507231803 26 274 11.3 24.1 0.00 0.00 0.00 21
20260507230903 25 290 11.3 24.1 0.00 0.00 0.00 21
20260507230004 25 348 4.8 19.3 0.00 0.00 0.00 19
20260507225613 25 24 3.2 19.3 0.00 0.00 0.00 21
20260507224504 24 5 12.9 25.7 0.00 0.00 0.00 20
20260507223603 24 359 11.3 25.7 0.00 0.00 0.00 21
20260507222703 25 316 14.5 24.1 0.00 0.00 0.00 22
20260507221803 25 339 6.4 19.3 0.00 0.00 0.00 24
20260507220903 24 341 8.0 19.3 0.00 0.00 0.00 21
20260507220003 25 315 6.4 17.7 0.00 0.00 0.00 22
20260507215403 25 306 6.4 17.7 0.00 0.00 0.00 20
20260507214503 25 314 8.0 14.5 0.00 0.00 0.00 20
20260507213603 25 293 8.0 19.3 0.00 0.00 0.00 23
20260507212703 25 187 4.8 9.7 0.00 0.00 0.00 21
20260507211803 24 257 4.8 12.9 0.00 0.00 0.00 21
20260507210903 24 293 4.8 14.5 0.00 0.00 0.00 24
20260507210003 24 298 3.2 9.7 0.00 0.00 0.00 20
20260507205403 24 298 8.0 16.1 0.00 0.00 0.00 25
20260507204503 24 321 6.4 16.1 0.00 0.00 0.00 22
20260507203813 24 309 3.2 11.3 0.00 0.00 0.00 23
20260507202703 23 254 3.2 14.5 0.00 0.00 0.00 23
20260507201803 23 255 4.8 14.5 0.00 0.00 0.00 20
20260507201113 23 268 4.8 11.3 0.00 0.00 0.00 23
20260507200003 23 1 3.2 11.3 0.00 0.00 0.00 21
20260507195403 23 329 4.8 11.3 0.00 0.00 0.00 22
20260507194713 23 325 4.8 17.7 0.00 0.00 0.00 25
20260507193603 23 331 3.2 9.7 0.00 0.00 0.00 24
20260507192703 23 268 4.8 20.9 0.00 0.00 0.00 24
20260507191803 22 217 4.8 16.1 0.00 0.00 0.00 23
20260507190903 23 262 3.2 9.7 0.00 0.00 0.00 23
20260507190004 22 281 3.2 11.3 0.00 0.00 0.00 23
20260507185613 22 269 1.6 9.7 0.00 0.00 0.00 27
20260507184503 22 265 3.2 8.0 0.00 0.00 0.00 24
20260507183603 22 257 4.8 11.3 0.00 0.00 0.00 27
20260507182703 21 289 3.2 6.4 0.00 0.00 0.00 27
20260507181803 21 295 4.8 16.1 0.00 0.00 0.00 28
20260507180903 21 276 4.8 16.1 0.00 0.00 0.00 30
20260507180003 21 282 6.4 14.5 0.00 0.00 0.00 26
20260507175403 21 298 6.4 9.7 0.00 0.00 0.00 27
20260507174503 21 279 4.8 12.9 0.00 0.00 0.00 30
20260507173603 21 265 3.2 12.9 0.00 0.00 0.00 30
20260507172703 20 243 4.8 11.3 0.00 0.00 0.00 27
20260507171803 20 255 3.2 9.7 0.00 0.00 0.00 31
20260507170903 19 267 3.2 9.7 0.00 0.00 0.00 27
20260507170003 18 289 3.2 8.0 0.00 0.00 0.00 30
20260507165403 18 293 3.2 8.0 0.00 0.00 0.00 32
20260507164503 18 182 3.2 6.4 0.00 0.00 0.00 32
20260507163603 17 124 3.2 8.0 0.00 0.00 0.00 30
20260507162703 17 29 3.2 6.4 0.00 0.00 0.00 30
20260507161803 16 360 1.6 4.8 0.00 0.00 0.00 34
20260507160903 16 360 3.2 6.4 0.00 0.00 0.00 34
20260507160003 15 360 3.2 6.4 0.00 0.00 0.00 37
20260507155403 15 360 3.2 6.4 0.00 0.00 0.00 37
20260507154504 14 360 3.2 8.0 0.00 0.00 0.00 36
20260507153603 13 360 3.2 8.0 0.00 0.00 0.00 38
20260507152703 13 360 6.4 9.7 0.00 0.00 0.00 38
20260507151803 13 360 6.4 14.5 0.00 0.00 0.00 39
20260507150903 13 357 3.2 11.3 0.00 0.00 0.00 41
20260507150214 12 348 1.6 4.8 0.00 0.00 0.00 39
20260507145403 11 348 1.6 4.8 0.00 0.00 0.00 41
20260507144503 11 348 1.6 6.4 0.00 0.00 0.00 44
20260507143603 9 348 1.6 6.4 0.00 0.00 0.00 46
20260507142703 8 348 3.2 6.4 0.00 0.00 0.00 48
20260507141803 7 344 1.6 9.7 0.00 0.00 0.00 49
20260507140903 5 306 3.2 9.7 0.00 0.00 0.00 55
20260507140003 5 297 3.2 6.4 0.00 0.00 0.00 61
20260507135403 4 297 3.2 6.4 0.00 0.00 0.00 63
20260507134503 3 300 1.6 4.8 0.00 0.00 0.00 66
20260507133603 2 303 0.0 3.2 0.00 0.00 0.00 63
20260507132913 2 297 0.0 3.2 0.00 0.00 0.00 63
20260507131803 2 0 0.0 0.0 0.00 0.00 0.00 60
20260507130903 2 0 0.0 0.0 0.00 0.00 0.00 58
20260507130003 2 0 0.0 0.0 0.00 0.00 0.00 60
20260507125403 1 0 0.0 0.0 0.00 0.00 0.00 59
20260507124503 1 297 0.0 1.6 0.00 0.00 0.00 58
20260507123603 1 297 0.0 3.2 0.00 0.00 0.00 57
20260507122705 1 297 0.0 1.6 0.00 0.00 0.00 57
20260507121803 1 0 0.0 0.0 0.00 0.00 0.00 56
20260507120903 1 297 0.0 1.6 0.00 0.00 0.00 56
20260507120004 1 297 0.0 3.2 0.00 0.00 0.00 57
20260507115403 1 297 0.0 3.2 0.00 0.00 0.00 57
20260507114503 1 0 0.0 0.0 0.00 0.00 0.00 57
20260507113603 1 297 0.0 1.6 0.00 0.00 0.00 56
20260507112703 2 297 1.6 4.8 0.00 0.00 0.00 55
20260507111803 2 297 0.0 3.2 0.00 0.00 0.00 55
20260507110903 2 0 0.0 0.0 0.00 0.00 0.00 53
20260507110003 2 0 0.0 0.0 0.00 0.00 0.00 52
20260507105403 2 297 0.0 3.2 0.00 0.00 0.00 52
20260507104503 3 297 1.6 4.8 0.00 0.00 0.00 50
20260507103813 3 296 3.2 4.8 0.00 0.00 0.00 50
20260507102703 2 296 3.2 4.8 0.00 0.00 0.00 49
20260507101803 2 296 0.0 3.2 0.00 0.00 0.00 49
20260507100903 3 296 0.0 1.6 0.00 0.00 0.00 48
20260507100003 2 296 0.0 1.6 0.00 0.00 0.00 49
20260507095403 2 296 0.0 1.6 0.00 0.00 0.00 49
20260507094504 2 296 0.0 4.8 0.00 0.00 0.00 51
20260507093603 2 297 0.0 3.2 0.00 0.00 0.00 55
20260507092914 2 297 0.0 1.6 0.00 0.00 0.00 54
20260507091803 2 359 1.6 6.4 0.00 0.00 0.00 48
20260507090903 3 36 0.0 1.6 0.00 0.00 0.00 51
20260507090214 3 36 0.0 3.2 0.00 0.00 0.00 51
20260507085403 3 36 1.6 4.8 0.00 0.00 0.00 49
20260507084503 3 36 0.0 1.6 0.00 0.00 0.00 49
20260507083603 3 52 3.2 6.4 0.00 0.00 0.00 52
20260507082703 3 59 3.2 4.8 0.00 0.00 0.00 51
20260507081803 3 59 1.6 3.2 0.00 0.00 0.00 47
20260507080903 3 59 1.6 4.8 0.00 0.00 0.00 48
20260507080003 3 59 1.6 4.8 0.00 0.00 0.00 47
20260507075403 3 61 1.6 4.8 0.00 0.00 0.00 46
20260507074503 4 55 3.2 6.4 0.00 0.00 0.00 45
20260507073603 5 34 1.6 6.4 0.00 0.00 0.00 44
20260507072703 6 2 6.4 11.3 0.00 0.00 0.00 41
20260507072012 6 354 8.0 11.3 0.00 0.00 0.00 42
20260507070903 6 341 6.4 11.3 0.00 0.00 0.00 40
20260507070213 6 342 6.4 9.7 0.00 0.00 0.00 42
20260507065403 6 27 4.8 8.0 0.00 0.00 0.00 43
20260507064503 5 52 3.2 6.4 0.00 0.00 0.00 46
20260507063813 5 67 1.6 6.4 0.00 0.00 0.00 46
20260507062703 5 91 1.6 3.2 0.00 0.00 0.00 44
20260507061803 6 90 0.0 4.8 0.00 0.00 0.00 44
20260507060903 7 90 0.0 4.8 0.00 0.00 0.00 39
20260507060005 8 90 1.6 6.4 0.00 0.00 0.00 40
20260507055403 9 90 1.6 6.4 0.00 0.00 0.00 37
20260507054503 9 89 3.2 9.7 0.00 0.00 0.00 34
20260507053813 7 87 3.2 11.3 0.00 0.00 0.00 37
20260507052703 6 39 1.6 4.8 0.00 0.00 0.00 41
20260507051803 7 47 1.6 4.8 0.00 0.00 0.00 40
20260507050904 7 0 0.0 0.0 0.00 0.00 0.00 37
20260507050003 8 47 0.0 3.2 0.00 0.00 0.00 36
20260507045403 8 46 0.0 1.6 0.00 0.00 0.00 35
20260507044503 8 46 0.0 1.6 0.00 0.00 0.00 35
20260507043603 9 47 0.0 4.8 0.00 0.00 0.00 35
20260507042703 9 47 0.0 4.8 0.00 0.00 0.00 35
20260507041803 9 33 1.6 4.8 0.00 0.00 0.00 35
20260507040903 9 38 1.6 4.8 0.00 0.00 0.00 34
20260507040004 10 38 1.6 6.4 0.00 0.00 0.00 33
20260507035403 10 41 1.6 6.4 0.00 0.00 0.00 33
20260507034503 9 41 1.6 6.4 0.00 0.00 0.00 33
20260507033603 9 27 0.0 4.8 0.00 0.00 0.00 33
20260507032703 10 0 0.0 0.0 0.00 0.00 0.00 32
20260507031803 11 0 0.0 0.0 0.00 0.00 0.00 32
20260507030903 12 10 4.8 16.1 0.00 0.00 0.00 29
20260507030003 12 360 6.4 17.7 0.00 0.00 0.00 28
20260507025403 12 356 6.4 16.1 0.00 0.00 0.00 29
20260507024503 13 348 9.7 17.7 0.00 0.00 0.00 28
20260507023603 13 352 8.0 19.3 0.00 0.00 0.00 28
20260507022703 13 352 9.7 19.3 0.00 0.00 0.00 27
20260507021803 14 348 9.7 20.9 0.00 0.00 0.00 26
20260507020903 14 349 9.7 22.5 0.00 0.00 0.00 26
20260507020003 15 351 9.7 20.9 0.00 0.00 0.00 26
20260507015403 15 354 11.3 20.9 0.00 0.00 0.00 25
20260507014503 15 357 12.9 25.7 0.00 0.00 0.00 25